TimeEDT,TemperatureF,Dew PointF,Humidity,Sea Level PressureIn,VisibilityMPH,Wind Direction,Wind SpeedMPH,Gust SpeedMPH,PrecipitationIn,Events,Conditions,WindDirDegrees,DateUTC
12:56 AM,62.1,48.9,62,30.10,10.0,SSW,10.4,-,N/A,,Mostly Cloudy,210,2013-03-31 04:56:00
1:56 AM,63.0,51.1,65,30.09,10.0,SW,11.5,-,N/A,,Mostly Cloudy,220,2013-03-31 05:56:00
2:56 AM,63.0,52.0,67,30.07,10.0,SSW,11.5,-,N/A,,Mostly Cloudy,210,2013-03-31 06:56:00
3:56 AM,62.1,53.1,72,30.05,10.0,SW,9.2,-,N/A,,Mostly Cloudy,220,2013-03-31 07:56:00
4:56 AM,60.1,53.1,78,30.04,10.0,SSW,8.1,-,N/A,,Mostly Cloudy,200,2013-03-31 08:56:00
5:56 AM,60.1,51.1,72,30.04,10.0,SW,6.9,-,N/A,,Overcast,220,2013-03-31 09:56:00
6:56 AM,60.1,51.1,72,30.05,10.0,SSW,9.2,-,N/A,,Mostly Cloudy,210,2013-03-31 10:56:00
7:56 AM,61.0,51.1,70,30.06,10.0,SW,8.1,-,N/A,,Mostly Cloudy,230,2013-03-31 11:56:00
8:56 AM,57.0,52.0,83,30.07,10.0,WSW,5.8,-,0.04,Rain,Light Rain,240,2013-03-31 12:56:00
9:56 AM,57.9,53.1,84,30.06,10.0,SSW,9.2,-,0.01,,Mostly Cloudy,210,2013-03-31 13:56:00
10:56 AM,64.0,53.1,67,30.05,10.0,WSW,8.1,-,N/A,,Mostly Cloudy,240,2013-03-31 14:56:00
11:56 AM,66.9,54.0,63,30.04,10.0,WSW,13.8,20.7,0.00,,Mostly Cloudy,240,2013-03-31 15:56:00
12:42 PM,68.0,55.4,64,30.03,10.0,SW,18.4,26.5,0.00,Rain,Light Rain,230,2013-03-31 16:42:00
12:51 PM,66.2,55.4,68,30.03,10.0,WSW,13.8,26.5,0.00,,Mostly Cloudy,240,2013-03-31 16:51:00
12:56 PM,69.1,55.9,63,30.03,10.0,SW,10.4,24.2,0.00,,Mostly Cloudy,230,2013-03-31 16:56:00
1:56 PM,71.1,55.0,57,30.00,10.0,SW,13.8,26.5,N/A,,Mostly Cloudy,230,2013-03-31 17:56:00
2:56 PM,73.9,55.0,52,29.96,10.0,SW,18.4,23.0,N/A,,Scattered Clouds,220,2013-03-31 18:56:00
3:56 PM,75.0,55.0,50,29.94,10.0,WSW,12.7,-,N/A,,Scattered Clouds,250,2013-03-31 19:56:00
4:56 PM,75.0,55.0,50,29.92,10.0,SSW,13.8,-,N/A,,Partly Cloudy,200,2013-03-31 20:56:00
5:56 PM,73.0,53.1,49,29.93,10.0,SSW,15.0,23.0,N/A,,Scattered Clouds,210,2013-03-31 21:56:00
6:56 PM,69.1,51.1,53,29.92,10.0,SSW,19.6,25.3,N/A,,Scattered Clouds,200,2013-03-31 22:56:00
7:56 PM,64.0,55.0,73,29.94,5.0,SW,13.8,27.6,0.00,Rain,Light Rain,230,2013-03-31 23:56:00
8:56 PM,62.1,55.9,80,29.95,10.0,South,5.8,-,0.01,,Scattered Clouds,180,2013-04-01 00:56:00
9:56 PM,62.1,55.0,78,29.94,10.0,SSW,10.4,-,0.00,,Mostly Cloudy,200,2013-04-01 01:56:00
10:56 PM,64.0,55.9,75,29.95,10.0,SW,9.2,-,N/A,,Overcast,220,2013-04-01 02:56:00
11:56 PM,64.0,55.9,75,29.94,10.0,SSW,9.2,-,N/A,,Overcast,210,2013-04-01 03:56:00